{"data":{"norad_id":54070,"intl_designator":"2022-136V","name":"STARLINK-5181","alt_names":[],"object_type":"PAYLOAD","status":"ACTIVE","operator":null,"country":"US","launch_date":"2022-10-20","launch_site_code":"AFETR","launch_vehicle":null,"mission":null,"orbit_class":"UNKNOWN","rcs_meters":null,"size_class":null,"mass_kg":null,"dimensions":null,"purposes":["comms"],"wikipedia_slug":null,"has_3d_model":false,"image_url":null,"decayed_at":null,"tle_current":{"epoch":"2026-09-20T04:18:45.520128Z","epoch_age_seconds":114589,"freshness":"FRESH","line1":"1 54070U 22136V   26263.17969352  .00000484  00000+0  24788-4 0  9999","line2":"2 54070  53.1608 179.2553 0001329  93.6757 266.4398 15.35402992216361","mean_motion":15.35402992,"eccentricity":0.0001329,"inclination_deg":53.1608,"raan_deg":179.2553,"arg_perigee_deg":93.6757,"mean_anomaly_deg":266.4398,"bstar":2.4788e-5,"rev_number":21636,"period_min":93.78645264487,"perigee_km":458.81500785708,"apogee_km":460.63251124697,"semimajor_km":6837.860759552,"source":"CELESTRAK","updated_at":"2026-09-21T09:00:33.079074Z"}}}